This is the latest recevied weather packets stored in our database for station/object SV9TNF-56. If no packets are shown the sender has not sent any weather packets the latest 10 day(s).
| Time | Temp. | Humidity | Pressure | Rain* | Wind** | Luminosity | Snow |
|---|---|---|---|---|---|---|---|
| 1788152559 | 76° F | 68% | 764 mmHg | 0 in | 11 mph, 150° | - | - |
| 1788152259 | 76° F | 70% | 764 mmHg | 0 in | 18 mph, 132° | - | - |
| 1788151959 | 76° F | 70% | 764 mmHg | 0 in | 20 mph, 138° | - | - |
| 1788151659 | 76° F | 69% | 763.8 mmHg | 0 in | 11 mph, 284° | - | - |
| 1788151358 | 76° F | 68% | 764 mmHg | 0 in | 11 mph, 168° | - | - |
| 1788151059 | 76° F | 66% | 764 mmHg | 0 in | 11 mph, 249° | - | - |
| 1788150758 | 76° F | 64% | 764 mmHg | 0 in | 11 mph, 253° | - | - |
| 1788150458 | 75° F | 65% | 763.8 mmHg | 0 in | 36 mph, 114° | - | - |
| 1788150158 | 75° F | 68% | 763.8 mmHg | 0 in | 23 mph, 240° | - | - |
| 1788149858 | 75° F | 70% | 763.8 mmHg | 0 in | 29 mph, 143° | - | - |
| 1788149558 | 75° F | 71% | 763.8 mmHg | 0 in | 7 mph, 178° | - | - |
| 1788149258 | 75° F | 72% | 763.8 mmHg | 0 in | 18 mph, 111° | - | - |
| 1788148957 | 74° F | 72% | 763.8 mmHg | 0 in | 7 mph, 48° | - | - |
| 1788148658 | 74° F | 74% | 763.8 mmHg | 0 in | 7 mph, 144° | - | - |
| 1788148358 | 74° F | 75% | 763.8 mmHg | 0 in | 7 mph, 156° | - | - |
| 1788148057 | 74° F | 78% | 763.8 mmHg | 0 in | 11 mph, 149° | - | - |
| 1788147757 | 74° F | 80% | 763.8 mmHg | 0 in | 0 mph | - | - |
| 1788147457 | 74° F | 80% | 763.8 mmHg | 0 in | 10 mph, 228° | - | - |
| 1788147157 | 74° F | 80% | 763.8 mmHg | 0 in | 11 mph, 160° | - | - |
| 1788146857 | 75° F | 80% | 763.8 mmHg | 0 in | 10 mph, 183° | - | - |
| 1788146557 | 75° F | 79% | 763.8 mmHg | 0 in | 5 mph, 177° | - | - |
| 1788146257 | 75° F | 78% | 763.8 mmHg | 0 in | 37 mph, 252° | - | - |
| 1788145957 | 75° F | 76% | 763.8 mmHg | 0 in | 20 mph, 306° | - | - |
| 1788145656 | 74° F | 74% | 763.8 mmHg | 0 in | 57 mph, 258° | - | - |
| 1788145356 | 74° F | 75% | 763.8 mmHg | 0 in | 16 mph, 198° | - | - |
* Rain latest hour (hover to see other rain measurements)
** Current wind speed in m/s (hover to see current wind gust speed)